EHI
0 0 0 0 0 0 0 0 0 0 0 0 0 0 0 0 0 0 0 0 0 0 0 0 0 0 0 0 0 0 0 0 0 0 1 1 1 1
0 0 0 0 0 0 0 0 0 0 0 0 0 0 0 0 0 0 0 0 0 0 0 0 0 0 0 0 0 0 0 0 0 0 0 0 0 1
0 0 0 0 0 0 0 0 0 0 0 0 0 0 0 0 0 0 0 0 0 0 0 0 0 0 0 0 0 0 0 0 0 0 0 0 0 0
0 0 0 0 0 0 0 0 0 0 0 0 0 0 0 0 0 0 0 0 0 0 0 0 0 0 0 0 0 0 0 0 0 0 0 0 0 0
0 0 0 0 0 0 0 0 0 0 0 0 0 0 0 0 0 0 0 0 0 0 0 0 0 0 0 0 0 0 0 0 0 0 0 0 0 0
0 0 0 0 0 0 0 0 0 0 0 0 0 0 0 0 0 0 0 0 0 0 0 0 0 0 0 0 0 0 0 0 0 0 0 0 0 0
0 0 0 0 0 0 0 0 0 0 0 0 0 0 0 0 0 0 0 0 0 0 0 0 0 0 0 0 0 0 0 0 0 0 0 0 0 0
0 0 0 0 0 0 0 0 0 0 0 0 0 0 0 0 0 0 0 0 0 0 0 0 0 0 0 0 0 0 0 0 0 0 0 0 0 0
0 0 0 0 0 0 0 0 0 0 0 0 0 0 0 0 0 0 0 0 0 0 0 0 0 0 0 0 0 0 0 0 0 0 0 0 0 0
0 0 0 0 0 0 0 0 0 0 0 0 0 0 0 0 0 0 0 0 0 0 0 0 0 0 0 0 0 0 0 0 0 0 0 0 0 0
0 0 0 0 0 0 0 0 0 0 0 0 0 0 0 0 0 0 0 0 0 0 0 0 0 0 0 0 0 0 0 0 0 0 0 0 0 0
0 0 0 0 0 0 0 0 0 0 0 0 0 0 0 0 0 0 0 0 0 0 0 0 0 0 0 0 0 0 0 0 0 0 0 0 0 0
0 0 0 0 0 0 0 0 0 0 0 0 0 0 0 0 0 0 0 0 0 0 0 0 0 0 0 0 0 0 0 0 0 0 0 0 0 0
0 0 0 0 0 0 0 0 0 0 0 0 0 0 0 0 0 0 0 0 0 0 0 0 0 0 0 0 0 0 0 0 0 0 0 0 0 0
0 0 0 0 0 0 0 0 0 0 0 0 0 0 0 0 0 0 0 0 0 0 0 0 0 0 0 0 0 0 0 0 0 0 0 0 0 0
0 0 0 0 0 0 0 0 0 0 0 0 0 0 0 0 0 0 0 0 0 0 0 0 0 0 0 0 0 0 0 0 0 0 0 0 0 0
0 0 0 0 0 0 0 0 0 0 0 0 0 0 0 0 0 0 0 0 0 0 0 0 0 0 0 0 0 0 0 0 0 0 0 0 0 0
0 0 0 0 0 0 0 0 0 0 0 0 0 0 0 0 0 0 0 0 0 0 0 0 0 0 0 0 0 0 0 0 0 0 0 0 0 0
0 0 0 0 0 0 0 0 0 0 0 0 0 0 0 0 0 0 0 0 0 0 0 0 0 0 0 0 0 0 0 0 0 0 0 0 0 0
0 0 0 0 0 0 0 0 0 0 0 0 0 0 0 0 0 0 0 0 0 0 0 0 0 0 0 0 0 0 0 0 0 0 0 0 0 0
0 0 0 0 0 0 0 0 0 0 0 0 0 0 0 0 0 0 0 0 0 0 0 0 0 0 0 0 0 0 0 0 0 0 0 0 0 0
0 0 0 0 0 0 0 0 0 0 0 0 0 0 0 0 0 0 0 0 0 0 0 0 0 0 0 0 0 0 0 0 0 0 0 0 0 0
0 0 0 0 0 0 0 0 0 0 0 0 0 0 0 0 0 0 0 0 0 0 0 0 0 0 0 0 0 0 0 0 0 0 0 0 0 0
Wind_Speed
6 6 5 4 4 4 4 4 4 4 3 3 1 1 2 3 5 4 4 7 8 8 7 7 6 6 5 5 5 4 4 4 4 5 5 6 7 8
5 6 6 5 4 4 4 4 5 5 4 3 2 2 3 4 6 5 5 9 9 9 9 9 8 8 8 7 7 7 7 7 7 7 7 7 7 7
6 7 7 6 5 4 4 4 4 4 5 3 1 3 4 6 5 5 5 5 6 10 10 10 10 10 10 10 10 10 10 10 10 10 10 10 9 9
7 7 7 6 6 5 4 5 5 5 5 4 2 3 4 7 7 7 6 6 6 10 11 11 11 11 11 11 11 11 11 11 12 12 12 12 12 12
7 7 8 7 7 5 5 5 4 4 4 4 4 3 3 6 7 7 7 5 7 8 11 11 11 11 12 12 12 12 11 11 12 13 13 14 14 14
7 7 8 8 8 7 6 6 5 5 5 5 5 5 5 6 7 7 6 4 5 6 7 8 10 11 11 11 12 12 11 12 12 12 13 13 13 13
7 7 8 9 10 8 6 6 6 5 5 6 6 5 6 8 7 6 8 6 4 4 5 4 5 5 5 8 10 11 11 11 11 12 12 12 13 12
7 7 7 8 10 11 12 11 10 9 8 7 6 8 8 8 7 9 9 8 4 3 4 4 3 3 2 3 6 8 9 10 10 11 11 11 12 12
7 7 7 6 7 5 7 9 10 12 12 10 9 9 10 11 11 11 9 7 5 7 5 4 2 2 2 3 6 7 8 9 9 10 10 10 11 10
8 8 7 7 7 7 6 5 5 6 9 8 9 9 9 10 11 11 11 7 6 5 4 4 2 2 3 2 4 6 7 8 8 9 10 10 10 9
8 8 8 8 10 10 8 7 5 3 5 9 10 11 14 15 13 10 10 10 8 4 2 4 3 3 2 2 2 4 6 7 7 8 9 9 9 8
6 7 10 10 11 12 9 9 9 6 8 9 9 11 11 13 16 13 12 11 9 5 3 4 4 4 3 1 1 1 2 3 5 6 7 8 9 5
6 5 5 11 12 12 10 8 11 10 9 10 9 8 8 8 8 7 7 10 9 5 6 5 4 3 4 3 1 1 1 1 1 2 4 7 8 6
6 5 5 10 11 11 8 10 13 11 8 8 8 7 7 7 6 7 7 6 5 7 8 7 5 4 5 4 2 1 1 1 2 2 2 4 5 5
4 5 6 10 10 8 11 14 12 8 8 9 8 6 5 6 7 7 8 8 7 5 6 6 7 5 5 5 4 3 2 1 2 2 2 3 3 2
3 4 6 9 7 8 10 9 6 7 8 8 7 6 6 6 7 8 8 7 6 4 4 4 8 9 5 4 5 4 3 3 2 2 2 2 1 2
4 3 4 5 5 6 6 6 6 7 8 7 8 8 8 7 6 5 6 6 6 4 3 4 5 6 6 6 5 3 3 2 2 3 3 2 2 3
5 4 5 6 7 7 8 7 6 7 8 8 8 8 8 8 6 5 5 7 7 6 5 4 5 5 5 5 3 5 3 2 2 2 3 3 2 3
4 4 5 6 7 7 7 7 7 7 8 9 9 8 7 7 7 6 6 6 6 5 4 4 4 5 5 3 2 1 4 3 3 2 2 3 3 4
4 5 5 6 6 7 7 7 7 7 8 8 8 7 7 7 7 6 6 6 5 4 3 2 3 5 6 6 4 2 4 5 4 3 2 1 1 1
4 5 5 5 5 6 7 7 8 8 8 7 7 7 7 7 6 6 6 8 6 4 5 4 4 5 4 4 3 1 3 5 6 5 4 3 1 1
4 4 4 5 5 6 6 7 8 7 8 7 6 6 6 6 7 7 7 6 5 5 5 3 3 4 3 4 4 4 3 2 4 6 7 8 6 6
4 3 3 4 4 5 6 7 8 7 7 7 6 6 6 6 6 6 7 6 5 5 4 3 2 2 3 4 4 3 4 3 2 3 5 10 13 12
Wind_Direction
236 233 232 232 220 218 214 205 217 257 269 246 234 167 131 118 135 126 125 133 129 124 121 116 108 98 92 89 91 92 101 118 128 142 153 164 176 184
240 236 238 233 227 220 215 212 208 216 243 235 219 169 142 133 125 116 118 122 117 116 112 107 100 94 91 89 87 87 87 93 105 112 114 115 117 125
253 242 242 233 226 224 214 212 212 204 230 239 199 150 136 135 123 114 110 105 109 109 107 102 97 93 88 85 82 81 83 85 90 97 101 102 106 110
255 247 245 240 229 222 214 217 215 205 205 214 181 158 142 145 135 129 121 113 106 107 105 102 98 94 89 85 82 80 80 82 85 90 94 98 100 100
252 248 245 235 233 225 217 218 216 211 197 185 174 153 137 145 136 125 115 110 109 109 100 96 96 94 91 88 86 83 82 83 84 85 86 87 89 91
255 248 243 230 227 222 219 216 208 201 187 173 163 156 149 147 141 135 126 120 116 112 97 95 95 91 92 93 93 90 87 87 87 88 88 88 87 88
264 253 244 236 227 220 214 204 195 192 179 172 166 160 156 158 154 146 138 127 98 110 109 100 92 84 81 90 94 96 94 92 92 92 93 93 92 91
262 261 253 240 232 228 220 207 195 189 184 177 177 172 167 159 149 148 144 142 133 146 118 105 98 93 82 81 102 104 102 99 97 98 99 99 98 96
251 253 253 240 222 216 212 209 207 201 189 180 177 176 168 164 155 154 156 151 138 154 129 108 95 92 78 96 114 112 108 106 106 107 109 108 106 104
247 243 238 234 218 200 191 189 194 197 195 186 180 175 165 161 161 155 148 122 104 132 128 116 118 93 77 64 106 114 113 111 112 113 116 115 113 111
250 244 231 225 216 196 181 175 170 176 172 166 161 156 154 154 150 141 143 139 138 150 143 115 127 103 75 55 66 106 110 109 112 113 118 122 120 112
250 241 227 215 205 192 182 172 169 164 146 134 134 136 145 151 154 157 155 151 144 147 171 121 138 128 108 61 77 75 88 98 104 108 119 127 126 108
241 235 221 203 198 194 184 177 169 156 145 138 134 134 135 140 144 143 148 151 149 148 159 132 140 134 127 137 148 170 146 117 95 90 118 139 141 129
235 228 211 194 191 187 179 162 152 145 139 136 134 135 137 138 136 133 131 128 133 145 154 143 137 148 128 124 144 145 140 143 130 119 114 124 127 130
225 215 196 184 179 179 164 154 149 144 142 140 138 135 129 129 121 113 106 102 91 102 139 145 138 136 131 135 143 142 141 160 158 146 147 153 159 144
199 178 170 175 171 157 152 152 146 141 140 137 130 123 118 120 125 126 123 116 98 65 49 105 138 134 123 123 131 140 153 162 164 163 154 167 182 177
159 148 150 158 162 150 145 136 129 127 125 124 127 128 126 122 119 117 120 114 112 117 92 59 68 86 110 129 128 139 144 148 161 151 139 151 219 209
158 161 160 161 160 153 148 136 132 133 132 130 131 132 133 131 125 117 120 123 125 126 122 120 110 89 61 30 85 141 144 156 159 146 137 145 217 241
161 160 158 159 154 148 144 136 133 136 134 135 136 135 133 131 130 128 126 124 126 128 130 131 126 121 125 142 305 164 155 158 147 149 167 168 197 226
156 156 157 153 149 147 145 138 135 135 135 136 137 136 135 134 136 138 138 137 135 128 125 129 144 147 156 168 183 218 186 161 160 174 188 184 248 304
147 145 145 142 143 144 143 140 140 140 140 139 141 143 142 139 142 145 145 147 136 136 152 182 198 159 115 99 106 239 243 206 180 173 169 157 181 239
139 136 139 139 141 141 140 139 138 139 142 141 145 146 146 145 149 151 152 153 155 157 167 169 133 124 126 152 183 207 228 233 224 215 202 182 172 191
144 142 141 139 140 140 140 142 142 143 146 147 148 149 150 149 150 153 157 158 156 155 148 149 148 154 169 174 184 200 215 214 206 222 248 235 224 226